When you browse on this site, cookies collect data to enhance your experience and personalize the content and advertising you see.
Visit our Privacy Policy to learn more. By continuing to use the site, you agree to this use of cookies and data.
  • In Österreich
  • Länderverzeichnis
  • Für 7 Tage
  • Wassertemperatur
  • Satellitenkarten
  • Wetterkarte
  • News
  • Widgets
  • user-avatar
    Anmelden

    Stündliche Wetter Sterling Heights

    Heute, 21 Juli, Sonntag

    Zeit Temperatur Niederschläge Wind Luftdruck Luftfeuchtigkeit
    00:00 +26°C° 0 mm 3 m/S 742 mmHg 68%
    01:00 +26°C° 0.3 mm 3 m/S 742 mmHg 71%
    02:00 +25°C° 0.3 mm 3 m/S 742 mmHg 75%
    03:00 +24°C° 0.3 mm 3 m/S 741 mmHg 79%
    04:00 +24°C° 0.1 mm 3 m/S 742 mmHg 80%
    05:00 +24°C° 0.1 mm 3 m/S 742 mmHg 81%
    06:00 +25°C° 0 mm 2 m/S 743 mmHg 82%
    07:00 +25°C° 0 mm 2 m/S 743 mmHg 77%
    08:00 +26°C° 0 mm 2 m/S 743 mmHg 72%
    09:00 +27°C° 0 mm 2 m/S 743 mmHg 67%
    10:00 +27°C° 0 mm 2 m/S 743 mmHg 62%
    11:00 +28°C° 0 mm 2 m/S 743 mmHg 57%
    12:00 +29°C° 0 mm 2 m/S 744 mmHg 52%
    13:00 +29°C° 0.1 mm 2 m/S 743 mmHg 52%
    14:00 +29°C° 0.1 mm 3 m/S 743 mmHg 52%
    15:00 +29°C° 0.1 mm 3 m/S 743 mmHg 52%
    16:00 +28°C° 0.4 mm 3 m/S 743 mmHg 57%
    17:00 +27°C° 0.4 mm 3 m/S 743 mmHg 61%
    18:00 +26°C° 0.4 mm 3 m/S 743 mmHg 66%
    19:00 +25°C° 0.1 mm 3 m/S 743 mmHg 64%
    20:00 +25°C° 0.1 mm 2 m/S 743 mmHg 63%
    21:00 +24°C° 0.1 mm 2 m/S 743 mmHg 62%
    22:00 +23°C° 0 mm 2 m/S 743 mmHg 62%
    23:00 +22°C° 0 mm 3 m/S 743 mmHg 63%

    Morgen, 22 Juli, Montag

    Zeit Temperatur Niederschläge Wind Luftdruck Luftfeuchtigkeit
    00:00 +21°C° 0 mm 3 m/S 743 mmHg 63%
    01:00 +21°C° 0 mm 3 m/S 743 mmHg 66%
    02:00 +21°C° 0 mm 3 m/S 743 mmHg 68%
    03:00 +20°C° 0 mm 3 m/S 742 mmHg 71%
    04:00 +20°C° 0 mm 3 m/S 743 mmHg 71%
    05:00 +20°C° 0 mm 3 m/S 743 mmHg 71%
    06:00 +19°C° 0 mm 3 m/S 743 mmHg 71%
    07:00 +20°C° 0 mm 3 m/S 743 mmHg 67%
    08:00 +21°C° 0 mm 4 m/S 743 mmHg 64%
    09:00 +21°C° 0 mm 4 m/S 743 mmHg 60%
    10:00 +22°C° 0 mm 4 m/S 743 mmHg 58%
    11:00 +23°C° 0 mm 5 m/S 743 mmHg 55%
    12:00 +25°C° 0 mm 5 m/S 743 mmHg 53%
    13:00 +25°C° 0 mm 5 m/S 743 mmHg 54%
    14:00 +24°C° 0 mm 6 m/S 743 mmHg 55%
    15:00 +26°C° 0 mm 6 m/S 743 mmHg 57%
    16:00 +25°C° 0 mm 5 m/S 743 mmHg 57%
    17:00 +23°C° 0 mm 5 m/S 743 mmHg 57%
    18:00 +22°C° 0 mm 4 m/S 743 mmHg 57%
    19:00 +21°C° 0 mm 4 m/S 744 mmHg 55%
    20:00 +21°C° 0 mm 3 m/S 744 mmHg 53%
    21:00 +20°C° 0 mm 3 m/S 744 mmHg 51%
    22:00 +19°C° 0 mm 3 m/S 744 mmHg 53%
    23:00 +19°C° 0 mm 3 m/S 744 mmHg 54%

    übermorgen, 23 Juli, Dienstag

    Zeit Temperatur Niederschläge Wind Luftdruck Luftfeuchtigkeit
    00:00 +19°C° 0 mm 3 m/S 744 mmHg 56%
    01:00 +18°C° 0 mm 3 m/S 744 mmHg 59%
    02:00 +18°C° 0 mm 4 m/S 744 mmHg 61%
    03:00 +17°C° 0 mm 4 m/S 744 mmHg 64%
    04:00 +17°C° 0 mm 4 m/S 744 mmHg 63%
    05:00 +17°C° 0 mm 4 m/S 745 mmHg 62%
    06:00 +17°C° 0 mm 4 m/S 745 mmHg 62%
    07:00 +19°C° 0 mm 4 m/S 745 mmHg 59%
    08:00 +21°C° 0 mm 4 m/S 745 mmHg 56%
    09:00 +22°C° 0 mm 3 m/S 745 mmHg 53%
    10:00 +25°C° 0 mm 4 m/S 745 mmHg 49%
    11:00 +26°C° 0 mm 4 m/S 745 mmHg 45%
    12:00 +27°C° 0 mm 4 m/S 745 mmHg 41%
    13:00 +27°C° 0.1 mm 4 m/S 745 mmHg 44%
    14:00 +27°C° 0.1 mm 4 m/S 745 mmHg 46%
    15:00 +26°C° 0.1 mm 4 m/S 745 mmHg 48%
    16:00 +26°C° 0.1 mm 4 m/S 745 mmHg 52%
    17:00 +25°C° 0.1 mm 3 m/S 745 mmHg 56%
    18:00 +24°C° 0.1 mm 3 m/S 745 mmHg 60%
    19:00 +23°C° 0 mm 2 m/S 745 mmHg 62%
    20:00 +21°C° 0 mm 2 m/S 745 mmHg 64%
    21:00 +21°C° 0 mm 1 m/S 745 mmHg 66%
    22:00 +21°C° 0 mm 1 m/S 746 mmHg 67%
    23:00 +21°C° 0 mm 1 m/S 746 mmHg 67%

    24 Juli, Mittwoch

    Zeit Temperatur Niederschläge Wind Luftdruck Luftfeuchtigkeit
    00:00 +20°C° 0 mm 1 m/S 746 mmHg 68%
    01:00 +20°C° 0 mm 1 m/S 746 mmHg 69%
    02:00 +20°C° 0 mm 1 m/S 746 mmHg 71%
    03:00 +18°C° 0 mm 2 m/S 746 mmHg 72%
    04:00 +19°C° 0 mm 2 m/S 746 mmHg 72%
    05:00 +20°C° 0 mm 1 m/S 747 mmHg 71%
    06:00 +20°C° 0 mm 1 m/S 747 mmHg 71%
    07:00 +22°C° 0 mm 1 m/S 747 mmHg 63%
    08:00 +24°C° 0 mm 1 m/S 748 mmHg 55%
    09:00 +26°C° 0 mm 1 m/S 748 mmHg 47%
    10:00 +27°C° 0 mm 1 m/S 748 mmHg 45%
    11:00 +28°C° 0 mm 2 m/S 748 mmHg 42%
    12:00 +28°C° 0 mm 2 m/S 748 mmHg 39%
    13:00 +28°C° 0 mm 2 m/S 747 mmHg 40%
    14:00 +28°C° 0 mm 2 m/S 747 mmHg 41%
    15:00 +28°C° 0 mm 2 m/S 746 mmHg 41%
    16:00 +27°C° 0 mm 2 m/S 746 mmHg 45%
    17:00 +27°C° 0 mm 2 m/S 746 mmHg 49%
    18:00 +26°C° 0 mm 2 m/S 746 mmHg 53%
    19:00 +25°C° 0 mm 2 m/S 747 mmHg 55%
    20:00 +24°C° 0 mm 1 m/S 747 mmHg 57%
    21:00 +23°C° 0 mm 1 m/S 747 mmHg 59%
    22:00 +23°C° 0 mm 1 m/S 747 mmHg 60%
    23:00 +22°C° 0 mm 1 m/S 747 mmHg 62%

    25 Juli, Donnerstag

    Zeit Temperatur Niederschläge Wind Luftdruck Luftfeuchtigkeit
    00:00 +22°C° 0 mm 1 m/S 747 mmHg 63%
    01:00 +22°C° 0 mm 1 m/S 747 mmHg 63%
    02:00 +21°C° 0 mm 1 m/S 747 mmHg 64%
    03:00 +21°C° 0 mm 1 m/S 747 mmHg 64%
    04:00 +21°C° 0 mm 1 m/S 748 mmHg 65%
    05:00 +22°C° 0 mm 1 m/S 748 mmHg 65%
    06:00 +22°C° 0 mm 1 m/S 748 mmHg 66%
    07:00 +24°C° 0 mm 1 m/S 748 mmHg 61%
    08:00 +26°C° 0 mm 1 m/S 749 mmHg 56%
    09:00 +28°C° 0 mm 2 m/S 749 mmHg 51%
    10:00 +28°C° 0 mm 2 m/S 749 mmHg 48%
    11:00 +29°C° 0 mm 3 m/S 749 mmHg 46%
    12:00 +30°C° 0 mm 3 m/S 749 mmHg 43%
    13:00 +30°C° 0.1 mm 3 m/S 748 mmHg 46%
    14:00 +30°C° 0.1 mm 3 m/S 748 mmHg 49%
    15:00 +29°C° 0.1 mm 3 m/S 748 mmHg 51%
    16:00 +29°C° 0.2 mm 3 m/S 748 mmHg 55%
    17:00 +28°C° 0.2 mm 3 m/S 748 mmHg 58%
    18:00 +27°C° 0.2 mm 2 m/S 748 mmHg 62%
    19:00 +26°C° 0 mm 2 m/S 749 mmHg 65%
    20:00 +25°C° 0 mm 2 m/S 749 mmHg 67%
    21:00 +25°C° 0 mm 1 m/S 749 mmHg 70%
    22:00 +24°C° 0 mm 1 m/S 749 mmHg 72%
    23:00 +24°C° 0 mm 2 m/S 749 mmHg 73%

    26 Juli, Freitag

    Zeit Temperatur Niederschläge Wind Luftdruck Luftfeuchtigkeit
    00:00 +23°C° 0 mm 2 m/S 749 mmHg 74%
    01:00 +23°C° 0 mm 2 m/S 749 mmHg 74%
    02:00 +23°C° 0 mm 2 m/S 749 mmHg 75%
    03:00 +21°C° 0 mm 2 m/S 749 mmHg 75%
    04:00 +23°C° 0 mm 2 m/S 749 mmHg 74%
    05:00 +23°C° 0 mm 2 m/S 750 mmHg 73%
    06:00 +23°C° 0 mm 2 m/S 750 mmHg 72%
    07:00 +25°C° 0 mm 2 m/S 750 mmHg 67%
    08:00 +26°C° 0 mm 3 m/S 751 mmHg 61%
    09:00 +28°C° 0 mm 3 m/S 751 mmHg 56%
    10:00 +28°C° 0 mm 4 m/S 751 mmHg 54%
    11:00 +29°C° 0 mm 4 m/S 751 mmHg 51%
    12:00 +30°C° 0 mm 4 m/S 750 mmHg 49%
    13:00 +30°C° 0 mm 4 m/S 750 mmHg 50%
    14:00 +30°C° 0 mm 4 m/S 750 mmHg 50%
    15:00 +32°C° 0 mm 4 m/S 750 mmHg 51%
    16:00 +30°C° 0 mm 4 m/S 750 mmHg 55%
    17:00 +29°C° 0 mm 4 m/S 749 mmHg 59%
    18:00 +28°C° 0 mm 4 m/S 749 mmHg 62%
    19:00 +27°C° 0 mm 4 m/S 749 mmHg 65%
    20:00 +27°C° 0 mm 4 m/S 750 mmHg 67%
    21:00 +26°C° 0 mm 4 m/S 750 mmHg 69%
    22:00 +25°C° 0 mm 4 m/S 750 mmHg 71%
    23:00 +25°C° 0 mm 3 m/S 750 mmHg 72%
    Mehr zeigen